This is the latest recevied weather packets stored in our database for station/object N4DWK. If no packets are shown the sender has not sent any weather packets the latest 10 day(s).
| Time | Temp. | Humidity | Pressure | Rain* | Wind** | Luminosity | Snow |
|---|---|---|---|---|---|---|---|
| 1777586404 | 23.89° C | 40% | 1008.5 hPa | 0 mm | - | 267 W/m² | - |
| 1777586104 | 23.89° C | 41% | 1008.4 hPa | 0 mm | - | 274 W/m² | - |
| 1777585806 | 23.33° C | 42% | 1008.3 hPa | 0 mm | - | 290 W/m² | - |
| 1777585505 | 23.33° C | 42% | 1008.4 hPa | 0 mm | - | 290 W/m² | - |
| 1777585206 | 23.33° C | 41% | 1008.4 hPa | 0 mm | - | 322 W/m² | - |
| 1777584905 | 23.33° C | 43% | 1008.4 hPa | 0 mm | - | 330 W/m² | - |
| 1777584605 | 23.89° C | 42% | 1008.5 hPa | 0 mm | - | 341 W/m² | - |
| 1777584305 | 23.89° C | 42% | 1008.3 hPa | 0 mm | - | 357 W/m² | - |
| 1777584005 | 23.89° C | 41% | 1008.3 hPa | 0 mm | - | 362 W/m² | - |
| 1777583705 | 23.89° C | 41% | 1008.2 hPa | 0 mm | - | 359 W/m² | - |
| 1777583405 | 23.89° C | 41% | 1008.2 hPa | 0 mm | - | 371 W/m² | - |
| 1777583105 | 23.89° C | 41% | 1008.3 hPa | 0 mm | - | 380 W/m² | - |
| 1777582806 | 23.33° C | 41% | 1008.2 hPa | 0 mm | - | 399 W/m² | - |
| 1777582505 | 23.89° C | 41% | 1008.2 hPa | 0 mm | - | 410 W/m² | - |
| 1777582205 | 23.89° C | 41% | 1008.2 hPa | 0 mm | - | 425 W/m² | - |
| 1777581904 | 23.33° C | 42% | 1008.2 hPa | 0 mm | - | 445 W/m² | - |
| 1777581605 | 22.78° C | 43% | 1008.1 hPa | 0 mm | - | 374 W/m² | - |
| 1777581305 | 23.89° C | 42% | 1008.1 hPa | 0 mm | - | 79 W/m² | - |
| 1777581005 | 24.44° C | 41% | 1008.1 hPa | 0 mm | - | 480 W/m² | - |
| 1777580705 | 23.89° C | 44% | 1008 hPa | 0 mm | - | 483 W/m² | - |
| 1777580405 | 23.33° C | 43% | 1007.9 hPa | 0 mm | - | 494 W/m² | - |
| 1777580105 | 23.89° C | 45% | 1008 hPa | 0 mm | - | 490 W/m² | - |
| 1777579805 | 23.33° C | 48% | 1008.1 hPa | 0 mm | - | 503 W/m² | - |
| 1777579504 | 22.22° C | 49% | 1008.2 hPa | 0 mm | - | 545 W/m² | - |
| 1777579204 | 22.78° C | 48% | 1008.2 hPa | 0 mm | - | 84 W/m² | - |
* Rain latest hour (hover to see other rain measurements)
** Current wind speed in m/s (hover to see current wind gust speed)